Location: Augirein
(42.9320°N, 0.9181°E)
Time: 20:38:17
(UTC+00:00)

GP-B - Pass Details

Date: 20 June 2021
Orbit: 631 x 634 km, 89.8° (Epoch: 23 July)

Event Time Altitude Azimuth Distance (km) Brightness Sun altitude
Rises 00:35:05 0° 352° (N) 2,940 7.8 -23.1°
Reaches altitude 10° 00:37:27 10° 343° (NNW) 2,026 6.6 -23.0°
Maximum altitude 00:41:28 34° 279° (W) 1,052 4.2 -22.9°
Enters shadow 00:41:51 33° 268° (W) 1,064 4.1 -22.9°
